ハーゲンローザー彗星

175P/Hergenrother (2013)

English version
Home page
Updated on September 14, 2013

---------------------------------------------------------------------

・ プロフィール

・ 写真集

・ 軌道要素

Epoch 2013 May 28.0 TT = JDT 2456440.5
T 2013 May 23.59783 TT                                  MPC
q   1.9462304            (2000.0)            P               Q
n   0.15534171     Peri.   55.98563     -0.99609130     -0.00477220
a   3.4272358      Node   123.59085     -0.02576413     -0.93942132
e   0.4321283      Incl.    6.07798     +0.08448869     -0.34273140
P   6.34
From 745 observations 2000 Jan. 4-2013 July 8, mean residual 0".6.

・ 星図

・ 光度変化

        m1 = 9.5 + 5 logΔ + 20.0 log r(t - 50)

---------------------------------------------------------------------

軌道要素はM.P.E.C. 2013-O31に掲載されたものです。
星図はステラナビゲータ Ver.8 (アストロアーツ) で作成したものです。
光度グラフはComet for Windowsで作成したものです。

---------------------------------------------------------------------

Copyright(C) Seiichi Yoshida (comet@aerith.net). All rights reserved.